Location: Blackwall
(51.5097°N, 0.0016°W)
Time: 02:06:58
(UTC+00:00)

Cosmos 1777 Rocket - Pass Details

Date: 15 May 2026
Orbit: 754 x 771 km, 74.0° (Epoch: 8 June)

Event Time Altitude Azimuth Distance (km) Brightness Sun altitude
Rises 21:31:55 0° 333° (NNW) 3,244 9.2 -12.7°
Reaches altitude 10° 21:34:18 10° 332° (NNW) 2,311 8.0 -12.9°
Maximum altitude 21:39:31 70° 249° (WSW) 810 4.1 -13.4°
Enters shadow 21:43:21 18° 169° (S) 1,787 5.3 -13.7°
